Location: Newark
(54.0610°N, 4.7980°W)
Time: 13:40:37
(UTC+00:00)

Envisat - Visible Passes

Search period start: 20 October 2019 00:00
Search period end: 30 October 2019 00:00
Orbit: 764 x 766 km, 98.1° (Epoch: 20 October)

Date Brightness Start Highest point End Pass type
(mag) Time Alt. Az. Time Alt. Az. Time Alt. Az.
20 Oct 5.9 06:13:32 10° NE 06:17:25 21° E 06:21:17 10° SE visible
20 Oct 5.0 19:14:06 10° SSW 19:18:30 29° W 19:22:57 10° NNW visible
21 Oct 6.6 05:38:37 10° ENE 05:40:04 11° E 05:41:32 10° E visible
21 Oct 3.8 18:36:30 10° S 18:41:28 55° W 18:46:29 10° NNW visible
22 Oct 3.0 17:59:33 10° SSE 18:04:38 81° ENE 18:09:46 10° NNW visible
22 Oct 5.7 19:40:45 10° SW 19:44:19 19° W 19:47:53 10° NW visible
23 Oct 6.0 06:02:34 10° NE 06:06:00 18° E 06:09:25 10° SE visible
23 Oct 4.7 19:02:30 10° SSW 19:07:08 35° W 19:11:48 10° NNW visible
24 Oct 3.4 18:25:07 10° S 18:30:11 66° WSW 18:35:16 10° NNW visible
24 Oct 6.2 20:08:22 10° WSW 20:10:13 12° W 20:12:05 10° WNW visible
25 Oct 5.5 06:27:28 10° NNE 06:31:49 28° E 06:36:09 10° SSE visible
25 Oct 3.0 17:48:21 10° SSE 17:53:23 68° ENE 17:58:28 10° N visible
25 Oct 5.4 19:28:56 10° SW 19:32:54 23° W 19:36:54 10° NW visible
26 Oct 6.2 05:51:44 10° NE 05:54:35 15° E 05:57:24 10° ESE visible
26 Oct 4.3 18:50:59 10° SSW 18:55:47 42° W 19:00:39 10° NNW visible
27 Oct 3.1 18:13:48 10° SSE 18:18:53 79° WSW 18:24:00 10° NNW visible
27 Oct 6.0 19:56:00 10° WSW 19:58:46 15° W 20:01:33 10° NW visible
28 Oct 5.8 06:16:24 10° NE 06:20:26 23° E 06:24:26 10° SE visible
28 Oct 3.1 17:37:11 10° SE 17:42:09 56° ENE 17:47:09 10° N visible
28 Oct 5.1 19:17:13 10° SSW 19:21:30 27° W 19:25:50 10° NW visible
29 Oct 6.4 05:41:09 10° ENE 05:43:07 12° E 05:45:06 10° ESE visible
29 Oct 3.9 18:39:31 10° S 18:44:28 51° W 18:49:27 10° NNW visible
